Hourly Data Report for October 24, 2014

All times are specified in Local Standard Time (LST). Add 1 hour to adjust for Daylight Saving Time where and when it is observed.

POND INLET A
NUNAVUT

72°41'22.000" N
77°58'08.000" W
61.60 m
2403206
71095
YIO

Download Data

Hourly Data (October 2014)
Hourly Data Report for October 24, 2014
Temp Definition
°C
Dew Point Temp Definition
°C
Rel Hum Definition
%
Wind Dir Definition
10's deg

Wind Spd Definition
km/h
Visibility Definition
km
Stn Press Definition
kPa
Hmdx Definition


Wind Chill Definition


Weather Definition


TIME
00:00 Legend Double Dagger -10.9 -13.9 79 25 46 16.1 100.45   -23 LegendNANA
01:00 Legend Double Dagger -10.8 -14.8 73 26 50 16.1 100.49   -23 LegendNANA
02:00 Legend Double Dagger -10.9 -15.5 69 26 52 16.1 100.58   -23 LegendNANA
03:00 Legend Double Dagger -11.0 -15.1 72 27 35 16.1 100.67   -22 LegendNANA
04:00 Legend Double Dagger -11.2 -15.4 71 28 26 16.1 100.69   -20 LegendNANA
05:00 Legend Double Dagger -11.3 -15.9 69 27 28 16.1 100.69   -21 LegendNANA
06:00 Legend Double Dagger -12.0 -16.4 70 27 37 16.1 100.69   -23 LegendNANA
07:00 Legend Double Dagger -11.8 -16.6 68 27 41 16.1 100.69   -23 LegendNANA
08:00 Legend Double Dagger -11.9 -16.8 68 27 43 16.1 100.69   -24 LegendNANA
09:00 Legend Double Dagger -11.4 -16.5 66 26 52 16.1 100.68   -24 LegendNANA
10:00 Legend Double Dagger -10.9 -15.7 68 28 41 16.1 100.69   -22 LegendNANA
11:00 Legend Double Dagger -11.2 -15.8 69 26 41 16.1 100.70   -22 LegendNANA
12:00 Legend Double Dagger -11.5 -16.1 69 27 52 16.1 100.73   -24 LegendNANA
13:00 Legend Double Dagger -11.5 -16.4 67 28 50 16.1 100.77   -24 LegendNANA
14:00 Legend Double Dagger -11.8 -17.2 65 28 46 16.1 100.80   -24 LegendNANA
15:00 Legend Double Dagger -11.9 -15.5 75 28 46 16.1 100.81   -24 LegendNANA
16:00 Legend Double Dagger -12.1 -16.6 70 26 46 16.1 100.89   -24 LegendNANA
17:00 Legend Double Dagger -12.6 -15.3 80 26 46 16.1 100.94   -25 Snow
18:00 Legend Double Dagger -12.6 -16.1 75 27 50 16.1 100.94   -25 LegendNANA
19:00 Legend Double Dagger -12.7 -17.1 70 26 45 16.1 101.00   -25 LegendNANA
20:00 Legend Double Dagger -12.5 -17.3 68 26 45 16.1 101.03   -25 LegendNANA
21:00 Legend Double Dagger -12.7 -17.2 69 27 43 16.1 101.06   -25 LegendNANA
22:00 Legend Double Dagger -12.5 -17.4 67 28 45 16.1 101.06   -25 LegendNANA
23:00 Legend Double Dagger -12.7 -17.0 70 27 34 16.1 101.12   -24 LegendNANA

Notes on Data Quality.

Legend

  • E = Estimated
  • M = Missing
  • NA = Not Available
  • ‡ = Partner data that is not subject to review by the National Climate Archives
Date modified: